Timeline UpdatesTrip UpdatesNews PostsPvt PostsTravel TipsAdmin PostsConv PostsFollowed PostsChat RequestsBlog PostsPNR Posts

Disclaimer
Search
 
 
Thu Oct 2, 2014 15:56:55 ISTHomeTrainsΣChainsAtlasPNRForumGalleryNewsFAQTripsMembersLoginFeedback
No Recent News for this Train
Other Trains in the News **new
Latest...
..
Tue Aug 26, 2014 (08:50PM)
⇐ Return Journey: Train# 13133

13134/Varanasi - Sealdah (Upper India) Express

Time-Table HAS CHANGED.
Sep 03 (5:12PM)
Change Departure Station:
Change Arrival Station:
Post a Train Travel TipPost a Train Travel Tip **new
Post a Comment/Question/Picture/VideoPost a Comment/Question/Picture/Video
Pantry/Catering
✕ NO Pantry Car
✕ NO Catering
RSA - Rake Sharing
13119/13120 Sealdah - Old Delhi Express
Rake/Coach Composition
LOCO-SLR-GS-GS-S4-S3-S2-S1-B1-GS-GS-GS-GS-GS-GS-SLR
Loco
BWN WDM-3A
News    PNR    Forum    Time-Table    Availability    Fare Chart    Map    Arr/Dep History    Trips    Gallery    ΣChains    X/O    Timeline    
Travel Time: 9h 20m    34 halts    Distance: 301 km    Avg Speed: 32 km/hr
Type: Mail/Express
Zone: ER/Eastern
Departs @ 08:40 (Avg 2m late)
Platform# 4
 MT TFS
Varanasi Junction/BSB 
Arrives @ 18:00 (Avg 1h 44m late)
Platform# ???
 MT TFS
Punarakh/PHK 

34 halts. 72 intermediate Stations between Varanasi Junction and Punarakh

Show ALL intermediate Stations  Show Old Time-Table

#CodeStation NameX/OArrivesAvgDepartsAvgHaltPFDay#KmSpeedElevZoneAddress
1BSBVaranasi Junction (9)»  -08:40+2410.01882mNRVaranasi 221002, Uttar Pradesh
2MGSMughal Sarai Junction (8)X  09:35+009:50+115m--116.44283mECRMughalsarai 232101, Uttar Pradesh
3SLDSakaldiha (2)X  10:16+010:18+62m--134.68781mECRState Highway 69, Uttar Pradesh
4ZNAZamania (2)X  10:36+1110:38+152m--160.75177mECRGhazipur, Uttar Pradesh
5DLNDildarnagar Junction (2)  10:52 10:54+1610:57 10:59+205m--174.17972mECRDildarnagar, Uttar Pradesh
6BWHBhadaura (2)  11:10 11:05+2111:12 11:07+212m--182.06169mECRGhazipur, Uttar Pradesh
7GMRGahmar (2)  11:22 11:15+2211:24 11:17+242m--190.26268mECRDistt: Ghazipur, Uttar Pradesh
8CSAChausa (2)X  11:32 11:26+2411:34 11:28+242m--199.43068mECRState Highway 14, Bihar
9BXRBuxar (3)X  11:49 11:50+1511:53 11:52+164 2m11110.39867mECRBuxar, Bihar
10DUREDumraon (3)  12:02+2612:04+262m--1126.76570mECRDumraon, Bihar
11TWGTwining GanjX12:14 12:11+3012:16 12:13+292m--1134.37270mECRArrah Buxar Rd, Bihar
12RPRRaghunathpur (4)  12:18 12:20+3312:20 12:22+332m--1142.68869mECRRaghunathpur, Bihar
13BYNBanahi (2)X  12:28+3412:30+332m--1151.55167mECRBanahi, Bihar
14BEABihiya (3)X  12:37+3612:39+392m--1157.47767mECRBehea, Bihar
15KRSKarisath (2)X  12:48+4412:50+492m--1168.96065mECRKarisath, Bihar
16ARAAra Junction (3)  13:00+3313:05+325m--1178.87463mECRarrah( 06182-233411), Bihar
17KUAKulharia (2)  13:13+5813:14+1:031m--1188.74361mECRChandi Sahar Rd, Bihar
18KWRKoelwar (2)X  13:19-13:21-2m--1192.31865mECRNational Highway 30, Bihar
19VHCHChakki Block CabinX  13:29+1:0113:31+592m--1194.85463mECRNational Highway 30, Bihar
20BTABihta (2)X  13:38+1:0113:40+1:022m--1201.04262mECRDistt: Patna, Bihar
21SDESadisopur (2)X  13:46-13:48-2m--1205.36164mECRSadisopur, Bihar
22NEONeora (2)XO  13:55+1:0613:57+1:092m--1212.3761mECRNational Highway 98, Bihar
23DNRDanapur (5)XO  14:50+2715:00+3210m--1218.45158mECRKhagaul, Bihar
24PWSPhulwari Sharif (3)X  15:04+4115:06+452m--1221.8958mECRPatna, Bihar
25PNBEPatna Junction (10)X  15:45+1715:55 16:05+1710 20m11227.82257mECRPatna 800001, Bihar
26RJPBRajendra Nagar Bihar (4)  16:02 16:12+2116:04 16:14+212m--1230.45155mECRPatna 800001, Bihar
27GZHGulzarbagh (3)X  16:09 16:19+3016:11 16:21+352m--1234.62055mECRPatna, Bihar
28PNCPatna Saheb (3)X  16:20 16:30+3016:22 16:32+312m--1237.73559mECRPatna 800008, Bihar
29FUTFatwa (6)  16:35 16:53+3416:37 16:55+542m--1249.92853mECRPatna, Bihar
30HDEHardas Bigha  16:42 17:00-16:44 17:02-2m--1252.27453mECRFatwah, Bihar
31KOOKhusropur (2)  16:49 17:07+5716:51 17:09+572m--1258.35052mECRPatna, Bihar
32KWOKarauta (2)X  17:16+5017:18+1:022m--1264.24552mECRKarauta, Bihar
33BKPBakhtiyarpur Junction (5)X  17:30+1:0517:32+1:222m--1273.29051mECRPatna, Bihar
34ATLAthmal Gola (2)  17:38+1:2917:40+1:292m--1282.26852mECRPatna, Bihar
35BARHBarh (3)  17:48+1:3417:50+1:442m--1291.36149mECRBarh, Bihar
36PHKPunarakh (2)•XO  18:00+1:4418:02+1:432m--1301.51051mECRPunarakh, Bihar
37MORMor (2)X  18:51+1:0318:53+1:052m--1309.73746mECRMor, Bihar
38MKAMokama Junction (4)  19:05+1:0419:10+1:025m--1317.06348mECRPatna, Bihar
39HTZHathidah Junction (2)X  19:18+1:0119:20+1:012m11325.44350mECRMusahari, Bihar
40BRYABarhiya (3)X  19:33+5919:35+592m--1334.87047mECRBarahiya, Bihar
41LKRLuckeesarai Junction (2)XO  19:48+1:0419:50+1:042m--1349.9152mECRLakhisarai, Bihar
42KIULKiul Junction (5)  20:45+2020:55+2010m51351.25953mECRDist. Lakhisarai, Bihar
43KJHKajra (2)  21:11+2921:13+312m--1366.94950mERLakhisarai District, Bihar
44AHAAbhaipur (3)  21:22+3221:24+322m--1374.25552mERAbhaipur, Bihar
45DRHDharhara (2)  21:35+3421:37+352m--1384.24755mERDharhara, Bihar
46DRTPDasharathpur (2)21:44+3521:46+352m--1389.72748mERDharhara, Bihar
47JMPJamalpur Junction (4)  22:00+2922:10+2810m--1396.14759mERJamalpur 06344-243101, Bihar
48RPURRatanpur (2)  22:18+3322:20+332m--1402.34246mERRatanpur Railway Station, Bihar
49BUPBariarpur (3)X  22:27+3322:29+332m--1407.25442mERMunger, Bihar
50SGGSultanGanj (3)  22:49+3322:51+342m--1425.14642mERSultanganj, Bihar
51AKNAkbarnagar (3)  23:04+3023:06+292m--1435.24539mERTilakpur, Bihar
52MPYMurarpur (2)  23:13-23:15-2m--1440.44238mERMau, Bihar
53NATNathnagar (2)  23:22+2623:24+262m--1445.41848mERBhagalpur, Bihar
54BGPBhagalpur Junction (6)X  23:40+1623:55+1915m21450.15649mERBhagalpur, Bihar
55SBOSabaur (3)X  00:03+2800:05+302m--2457.65042mERSabour, Bihar
56GGAGhoga (2)  00:20+3500:22+372m--2470.04942mERGhoga, Bihar
57EKCEkchari (1)X  00:29+3800:31+382m12475.82037mERNational Highway 80, Bihar
58CLGKahalgaon (2)  00:44+3300:46+332m12480.14444mERBhagalpur, Bihar
59BKSLBikram Shila (2)  01:01 00:57+3101:03 00:58+322 1m--2488.22358mERBikram Shila, Bihar
60SVRPShivanarayanpur (2)  01:12 01:07+2901:14 01:08+302 1m--2491.64447mERShivanarayanpur, Bihar
61PPTPirpainti (2)  01:25 01:20+3001:27 01:21+312 1m--2500.55653mERBhagalpur, Bihar
62MZCMirza Cheuki (3)  01:36 01:30+3301:38 01:32+332m32509.03538mERBihar, Bihar
63SBGSahibganj Junction (3)  02:03 01:58+2302:13 02:08+3010m12524.05038mERSahibganj, Jharkhand
64TLJTaljhari  02:44 02:42+3602:46 02:44+362m--2552.22538mERTaljhari, Jharkhand
65TPHTinpahar Junction (3)  03:03 03:07+3203:05 03:08+322 1m22561.83145mERBamangawan, Jharkhand
66BHWBarharwa Junction (3)  03:40+1603:45+185m22578.56536mERBarharwa, Jharkhand
67KLPKotalpukur (3)X  03:58+2804:00+272m12592.56540mERKotalpukur, Jharkhand
68PKRPakur (2)  04:11+2704:13+282m22604.54237mERDist:- Pakur, Jharkhand
69RJGRajgram (3)X  04:28+3204:30+332m22615.15032mERDist - Birbhum, West Bengal
70BSBRBanshlai Bridge (2)  04:38+3204:40+312m--2621.84335mERDist - Birbhum, West Bengal
71MRRMurarai (3)  04:47+3104:49+312m22626.85736mERDist - Birbhum, West Bengal
72CTRChatra (3)X  04:57+3404:59+342m22634.44742mERDist - Birbhum, West Bengal
73NHTNalhati Junction (4)  05:10+3305:12+332m22643.02348mERDist - Birbhum, West Bengal
74RPHRampurhat (3)X  05:48+2006:03+1515m12657.16841mERDIST - Birbhum, West Bengal
75MLVMallarpur (3)  06:14+2106:16+222m--2669.54946mERDist - Birbhum, West Bengal
76SNTSainthia Junction (4)X  06:35+2006:37+212m42685.18058mERDist - Birbhum, West Bengal
77AMPAhmadpur Junction (3)  06:47+2506:49+242m22698.36546mERDist - Birbhum, West Bengal
78PNEPrantik (3)  07:03+1607:05+162m22713.63248mERDist - Birbhum, West Bengal
79BHPBolpur Shantiniketan (3)  07:13+2107:18+195m22717.87159mERDist - Birbhum, West Bengal
80GKHGuskara (2)X  07:34+2207:36+222m12736.73541mERDist - Bardhaman, West Bengal
81BWNBarddhaman Junction (8)XO  08:32+1108:56+624m--2769.67034mERDist - Barddhaman, West Bengal
82DAKEDakhineswar (2)  10:12-10:14-2m22858.22310mERDist - 24 paraganas ( North ), West Bengal
83BNXRBidhan Nagar Road (4)  10:38+510:40+52m42867.6138mERKolkata, West Bengal
84SDAHKolkata Sealdah (20)  10:55+9-92870.9-8mERPh : 033-23503535 (For North: APC Roy Road) Kolkata 700014, West Bengal
Scroll to Top
Scroll to Bottom